1545883200.33,385,0.0,0.0,-8.61,-9.41,-9.41,0,*51
1545883201.6,386,0.0,0.0,-8.61,-9.41,-9.41,0,*52
1545883202.86,387,0.0,0.0,-8.61,-9.41,-9.41,0,*53
1545883206.59,390,0.0,0.0,-8.61,-9.31,-9.41,0,*52
1545883207.86,391,0.0,0.0,-8.61,-9.41,-9.45,0,*50
1545883209.09,392,0.0,0.0,-8.61,-9.41,-9.31,0,*50
1545883210.36,393,0.0,0.0,-8.61,-9.45,-9.41,0,*52
1545883211.6,394,0.0,0.0,-8.61,-9.41,-9.31,0,*56
1545883212.81,395,0.0,0.0,-8.61,-9.31,-9.31,0,*50
1545883214.07,396,0.0,0.0,-8.61,-9.45,-9.41,0,*57
1545883215.34,397,0.0,0.0,-8.61,-9.45,-9.45,0,*52
1545883216.61,398,0.0,0.0,-8.61,-9.41,-9.41,0,*5D
1545883219.15,400,0.0,0.0,-8.61,-9.41,-9.41,0,*5B
1545883220.42,401,0.0,0.0,-8.61,-9.45,-9.45,0,*5A
1545883221.68,402,0.0,0.0,-8.61,-9.45,-9.41,0,*5D
1545883222.95,403,0.0,0.0,-8.61,-9.41,-9.41,0,*58
1545883224.22,404,0.0,0.0,-8.61,-9.41,-9.41,0,*5F
1545883225.46,405,0.0,0.0,-8.59,-9.37,-9.37,0,*55
1545883226.72,406,0.0,0.0,-8.61,-9.45,-9.45,0,*5D
1545883227.99,407,0.0,0.0,-8.61,-9.45,-9.45,0,*5C
1545883229.23,408,0.0,0.0,-8.63,-9.45,-9.45,0,*51
1545883230.47,409,0.0,0.0,-8.63,-9.45,-9.41,0,*54
1545883231.71,410,0.0,0.0,-8.63,-9.41,-9.45,0,*5C
1545883232.94,411,0.0,0.0,-8.63,-9.45,-9.45,0,*59
1545883234.21,412,0.0,0.0,-8.61,-9.45,-9.45,0,*58
1545883235.45,413,0.0,0.0,-8.63,-9.45,-9.45,0,*5B
1545883239.17,416,0.0,0.0,-8.63,-9.45,-9.45,0,*5E
1545883240.41,417,0.0,0.0,-8.63,-9.45,-9.45,0,*5F
1545883241.65,418,0.0,0.0,-8.63,-9.41,-9.45,0,*54
1545883242.88,419,0.0,0.0,-8.63,-9.45,-9.45,0,*51
1545883244.12,420,0.0,0.0,-8.63,-9.45,-9.45,0,*5B
1545883245.39,421,0.0,0.0,-8.61,-9.45,-9.45,0,*58
1545883246.65,422,0.0,0.0,-8.65,-9.49,-9.49,0,*5F
1545883247.89,423,0.0,0.0,-8.63,-9.45,-9.41,0,*5C
1545883249.13,424,0.0,0.0,-8.63,-9.45,-9.45,0,*5F
1545883252.92,427,0.0,0.0,-8.65,-9.49,-9.49,0,*5A
1545883254.16,428,0.0,0.0,-8.63,-9.45,-9.45,0,*53
1545883255.4,429,0.0,0.0,-8.63,-9.45,-9.45,0,*52
1545883256.64,430,0.0,0.0,-8.63,-9.41,-9.41,0,*5A
1545883257.9,431,0.0,0.0,-8.65,-9.49,-9.49,0,*5D
1545883259.13,432,0.0,0.0,-8.63,-9.45,-9.45,0,*58
1545883260.38,433,0.0,0.0,-8.63,-9.41,-9.45,0,*5D
1545883261.61,434,0.0,0.0,-8.63,-9.45,-9.45,0,*5E
1545883262.85,435,0.0,0.0,-8.63,-9.41,-9.41,0,*5F
1545883265.33,437,0.0,0.0,-8.63,-9.45,-9.45,0,*5D
1545883266.57,438,0.0,0.0,-8.63,-9.45,-9.45,0,*52
1545883267.81,439,0.0,0.0,-8.63,-9.41,-9.45,0,*57
1545883269.05,440,0.0,0.0,-8.63,-9.45,-9.45,0,*5D
1545883270.29,441,0.0,0.0,-8.63,-9.41,-9.45,0,*58
1545883271.52,442,0.0,0.0,-8.63,-9.45,-9.45,0,*5F
1545883272.77,443,0.0,0.0,-8.63,-9.41,-9.45,0,*5A
1545883274.0,444,0.0,0.0,-8.63,-9.45,-9.45,0,*59
1545883275.25,445,0.0,0.0,-8.63,-9.41,-9.45,0,*5C
1545883276.48,446,0.0,0.0,-8.63,-9.45,-9.45,0,*5B
1545883277.74,447,0.0,0.0,-8.65,-9.49,-9.49,0,*5C
1545883279.0,448,0.0,0.0,-8.65,-9.49,-9.49,0,*53
1545883280.27,449,0.0,0.0,-8.65,-9.45,-9.49,0,*5E
1545883281.53,450,0.0,0.0,-8.65,-9.49,-9.49,0,*5A
1545883282.77,451,0.0,0.0,-8.63,-9.45,-9.49,0,*51
1545883284.03,452,0.0,0.0,-8.65,-9.53,-9.53,0,*58
1545883285.29,453,0.0,0.0,-8.65,-9.53,-9.53,0,*59
1545883286.52,454,0.0,0.0,-8.63,-9.49,-9.49,0,*58
1545883287.76,455,0.0,0.0,-8.63,-9.49,-9.45,0,*55
1545883289.02,456,0.0,0.0,-8.65,-9.53,-9.49,0,*57
1545883290.27,457,0.0,0.0,-8.65,-9.53,-9.49,0,*56
1545883291.54,458,0.0,0.0,-8.65,-9.49,-9.49,0,*52
1545883292.8,459,0.0,0.0,-8.65,-9.49,-9.49,0,*53
1545883294.05,460,0.0,0.0,-8.65,-9.53,-9.49,0,*52
1545883295.29,461,0.0,0.0,-8.63,-9.53,-9.53,0,*5E
1545883296.55,462,0.0,0.0,-8.65,-9.53,-9.53,0,*5B
1545883297.81,463,0.0,0.0,-8.65,-9.53,-9.53,0,*5A
1545883299.05,464,0.0,0.0,-8.63,-9.49,-9.49,0,*5B
1545883300.31,465,0.0,0.0,-8.65,-9.53,-9.49,0,*57
1545883301.57,466,0.0,0.0,-8.65,-9.53,-9.53,0,*5F
1545883302.8,467,0.0,0.0,-8.63,-9.49,-9.49,0,*58
1545883304.06,468,0.0,0.0,-8.65,-9.53,-9.53,0,*51
1545883305.3,469,0.0,0.0,-8.63,-9.53,-9.49,0,*5D
1545883306.56,470,0.0,0.0,-8.65,-9.61,-9.53,0,*59
1545883307.82,471,0.0,0.0,-8.65,-9.61,-9.53,0,*58
1545883309.08,472,0.0,0.0,-8.65,-9.53,-9.53,0,*5A
1545883310.34,473,0.0,0.0,-8.65,-9.53,-9.61,0,*5A
1545883311.6,474,0.0,0.0,-8.65,-9.61,-9.53,0,*5D
1545883312.86,475,0.0,0.0,-8.65,-9.53,-9.53,0,*5D
1545883314.12,476,0.0,0.0,-8.65,-9.53,-9.61,0,*5F
1545883315.38,477,0.0,0.0,-8.65,-9.53,-9.61,0,*5E
1545883316.61,478,0.0,0.0,-8.65,-9.61,-9.67,0,*56
1545883317.84,479,0.0,0.0,-8.65,-9.67,-9.61,0,*57
1545883319.06,480,0.0,0.0,-8.67,-9.53,-9.67,0,*52
1545883320.29,481,0.0,0.0,-8.67,-9.61,-9.61,0,*54
1545883321.5,482,0.0,0.0,-8.67,-9.67,-9.61,0,*51
1545883322.73,483,0.0,0.0,-8.67,-9.61,-9.61,0,*56
1545883323.95,484,0.0,0.0,-8.67,-9.67,-9.53,0,*56
1545883325.18,485,0.0,0.0,-8.67,-9.61,-9.61,0,*50
1545883326.39,486,0.0,0.0,-8.67,-9.67,-9.61,0,*55
1545883328.82,488,0.0,0.0,-8.67,-9.61,-9.75,0,*58
1545883330.05,489,0.0,0.0,-8.67,-9.61,-9.61,0,*5C
1545883331.28,490,0.0,0.0,-8.67,-9.53,-9.61,0,*55
1545883332.5,491,0.0,0.0,-8.69,-9.67,-9.79,0,*54
1545883333.69,492,0.0,0.0,-8.67,-9.67,-9.71,0,*51
1545883334.9,493,0.0,0.0,-8.67,-9.61,-9.67,0,*51
1545883343.29,500,0.0,0.0,-8.69,-9.79,-9.79,0,*52
1545883344.51,501,0.0,0.0,-8.69,-9.71,-9.79,0,*5B
1545883345.73,502,0.0,0.0,-8.69,-9.79,-9.71,0,*58
1545883346.92,503,0.0,0.0,-8.67,-9.75,-9.75,0,*5F
1545883349.37,505,0.0,0.0,-8.69,-9.79,-9.83,0,*52
1545883350.61,506,0.0,0.0,-8.69,-9.83,-9.79,0,*51
1545883351.83,507,0.0,0.0,-8.69,-9.79,-9.79,0,*55
1545883353.05,508,0.0,0.0,-8.69,-9.71,-9.79,0,*52
1545883355.52,510,0.0,0.0,-8.73,-9.83,-9.83,0,*58
1545883356.71,511,0.0,0.0,-8.71,-9.79,-9.79,0,*5B
1545883357.9,512,0.0,0.0,-8.71,-9.79,-9.79,0,*58
1545883359.09,513,0.0,0.0,-8.71,-9.79,-9.71,0,*51
1545883360.29,514,0.0,0.0,-8.71,-9.71,-9.79,0,*56
1545883361.52,515,0.0,0.0,-8.73,-9.83,-9.75,0,*54
1545883362.78,516,0.0,0.0,-8.73,-9.83,-9.83,0,*5E
1545883364.04,517,0.0,0.0,-8.73,-9.83,-9.83,0,*5F
1545883365.24,518,0.0,0.0,-8.71,-9.71,-9.79,0,*5A
1545883366.45,519,0.0,0.0,-8.73,-9.75,-9.75,0,*51
1545883367.69,520,0.0,0.0,-8.73,-9.75,-9.83,0,*52
1545883368.89,521,0.0,0.0,-8.71,-9.79,-9.79,0,*58
1545883370.15,522,0.0,0.0,-8.73,-9.83,-9.83,0,*59
1545883371.36,523,0.0,0.0,-8.73,-9.75,-9.89,0,*5B
1545883372.55,524,0.0,0.0,-8.71,-9.71,-9.79,0,*55
1545883373.75,525,0.0,0.0,-8.71,-9.79,-9.79,0,*5C
1545883375.01,526,0.0,0.0,-8.73,-9.83,-9.83,0,*5D
1545883376.22,527,0.0,0.0,-8.73,-9.75,-9.89,0,*5F
1545883377.46,528,0.0,0.0,-8.73,-9.83,-9.75,0,*5A
1545883381.13,531,0.0,0.0,-8.73,-9.75,-9.83,0,*52
1545883382.36,532,0.0,0.0,-8.73,-9.83,-9.75,0,*51
1545883383.6,533,0.0,0.0,-8.73,-9.75,-9.83,0,*50
1545883384.84,534,0.0,0.0,-8.73,-9.75,-9.83,0,*57
1545883387.32,536,0.0,0.0,-8.73,-9.83,-9.83,0,*5C
1545883388.53,537,0.0,0.0,-8.75,-9.75,-9.83,0,*52
1545883389.78,538,0.0,0.0,-8.73,-9.75,-9.83,0,*5B
1545883391.02,539,0.0,0.0,-8.73,-9.75,-9.83,0,*5A
1545883393.47,541,0.0,0.0,-8.73,-9.83,-9.75,0,*55
1545883394.69,542,0.0,0.0,-8.77,-9.79,-9.89,0,*54
1545883395.91,543,0.0,0.0,-8.77,-9.75,-9.79,0,*56
1545883397.1,544,0.0,0.0,-8.75,-9.75,-9.75,0,*5F
1545883399.5,546,0.0,0.0,-8.75,-9.75,-9.75,0,*5D
1545883400.68,547,0.0,0.0,-8.75,-9.75,-9.75,0,*5C
1545883401.89,548,0.0,0.0,-8.77,-9.89,-9.89,0,*51
1545883403.1,549,0.0,0.0,-8.75,-9.89,-9.83,0,*58
1545883404.33,550,0.0,0.0,-8.75,-9.83,-9.83,0,*5A
1545883405.55,551,0.0,0.0,-8.77,-9.79,-9.79,0,*59
1545883406.76,552,0.0,0.0,-8.75,-9.83,-9.75,0,*51
1545883407.97,553,0.0,0.0,-8.77,-9.89,-9.89,0,*5B
1545883409.18,554,0.0,0.0,-8.77,-9.89,-9.89,0,*5C
1545883410.39,555,0.0,0.0,-8.77,-9.89,-9.89,0,*5D
1545883411.6,556,0.0,0.0,-8.77,-9.89,-9.89,0,*5E
1545883412.81,557,0.0,0.0,-8.77,-9.89,-9.89,0,*5F
1545883414.03,558,0.0,0.0,-8.77,-9.79,-9.89,0,*5F
1545883415.25,559,0.0,0.0,-8.77,-9.79,-9.93,0,*55
1545883417.69,561,0.0,0.0,-8.77,-9.79,-9.89,0,*55
1545883418.9,562,0.0,0.0,-8.77,-9.89,-9.93,0,*52
1545883420.13,563,0.0,0.0,-8.81,-9.83,-9.93,0,*50
1545883421.34,564,0.0,0.0,-8.77,-9.89,-9.89,0,*5F
1545883422.55,565,0.0,0.0,-8.77,-9.89,-9.89,0,*5E
1545883423.77,566,0.0,0.0,-8.77,-9.93,-9.93,0,*5D
1545883424.98,567,0.0,0.0,-8.77,-9.93,-9.93,0,*5C
1545883426.2,568,0.0,0.0,-8.81,-9.93,-10.05,0,*6D
1545883427.41,569,0.0,0.0,-8.77,-9.89,-9.93,0,*59
1545883428.62,570,0.0,0.0,-8.81,-9.93,-9.97,0,*57
1545883429.8,571,0.0,0.0,-8.83,-9.93,-9.97,0,*54
1545883431.01,572,0.0,0.0,-8.81,-9.93,-9.97,0,*55
1545883432.19,573,0.0,0.0,-8.83,-9.97,-9.97,0,*52
1545883433.38,574,0.0,0.0,-8.83,-9.97,-9.97,0,*55
1545883434.56,575,0.0,0.0,-8.83,-9.93,-9.97,0,*50
1545883435.74,576,0.0,0.0,-8.83,-9.97,-9.97,0,*57
1545883436.93,577,0.0,0.0,-8.83,-9.97,-10.05,0,*65
1545883438.12,578,0.0,0.0,-8.83,-9.93,-9.97,0,*5D
1545883439.3,579,0.0,0.0,-8.83,-9.93,-9.97,0,*5C
1545883441.7,581,0.0,0.0,-8.83,-9.93,-9.97,0,*5B
1545883442.88,582,0.0,0.0,-8.83,-9.93,-9.93,0,*5C
1545883444.07,583,0.0,0.0,-8.83,-9.93,-9.97,0,*59
1545883445.28,584,0.0,0.0,-8.81,-9.93,-10.05,0,*6F
1545883446.46,585,0.0,0.0,-8.83,-9.93,-9.93,0,*5B
1545883447.65,586,0.0,0.0,-8.83,-9.93,-9.93,0,*58
1545883448.86,587,0.0,0.0,-8.83,-9.83,-9.93,0,*58
1545883450.05,588,0.0,0.0,-8.83,-9.93,-9.93,0,*56
1545883451.25,589,0.0,0.0,-8.81,-9.93,-9.97,0,*51
1545883454.8,592,0.0,0.0,-8.83,-9.93,-9.97,0,*59
1545883455.99,593,0.0,0.0,-8.83,-9.93,-9.93,0,*5C
1545883457.18,594,0.0,0.0,-8.83,-9.93,-9.93,0,*5B
1545883458.36,595,0.0,0.0,-8.83,-9.93,-9.93,0,*5A
1545883460.76,597,0.0,0.0,-8.87,-9.97,-9.97,0,*5C
1545883461.97,598,0.0,0.0,-8.85,-9.83,-9.97,0,*54
1545883463.18,599,0.0,0.0,-8.85,-9.83,-9.93,0,*51
1545883464.36,600,0.0,0.0,-8.85,-9.93,-9.93,0,*53
1545883465.57,601,0.0,0.0,-8.85,-9.83,-9.93,0,*53
1545883466.76,602,0.0,0.0,-8.85,-9.93,-9.93,0,*51
1545883467.97,603,0.0,0.0,-8.85,-9.83,-9.97,0,*55
1545883469.16,604,0.0,0.0,-8.85,-9.97,-10.01,0,*60
1545883470.39,605,0.0,0.0,-8.85,-9.83,-9.83,0,*56
1545883471.6,606,0.0,0.0,-8.87,-9.89,-9.97,0,*58
1545883472.81,607,0.0,0.0,-8.87,-9.89,-9.97,0,*59
1545883474.04,608,0.0,0.0,-8.87,-9.97,-9.83,0,*5C
1545883475.25,609,0.0,0.0,-8.85,-9.83,-9.93,0,*5B
1545883476.46,610,0.0,0.0,-8.87,-9.97,-9.89,0,*5F
1545883478.85,612,0.0,0.0,-8.87,-9.89,-9.97,0,*5D
1545883480.06,613,0.0,0.0,-8.85,-9.83,-9.93,0,*50
1545883481.27,614,0.0,0.0,-8.87,-9.89,-9.97,0,*5B
1545883482.48,615,0.0,0.0,-8.87,-9.97,-9.97,0,*55
1545883483.69,616,0.0,0.0,-8.87,-9.97,-9.89,0,*59
1545883484.87,617,0.0,0.0,-8.85,-9.93,-9.93,0,*55
1545883486.08,618,0.0,0.0,-8.87,-9.89,-9.97,0,*57
1545883487.29,619,0.0,0.0,-8.85,-9.83,-9.97,0,*5E
1545883488.5,620,0.0,0.0,-8.85,-9.83,-9.97,0,*54
1545883489.72,621,0.0,0.0,-8.87,-9.97,-10.01,0,*65
1545883490.94,622,0.0,0.0,-8.87,-9.97,-10.01,0,*66
1545883492.16,623,0.0,0.0,-8.87,-9.97,-10.01,0,*67
1545883493.37,624,0.0,0.0,-8.87,-9.89,-9.97,0,*58
1545883494.59,625,0.0,0.0,-8.87,-9.97,-10.01,0,*61
1545883497.0,627,0.0,0.0,-8.87,-9.89,-9.89,0,*54
1545883498.21,628,0.0,0.0,-8.87,-9.89,-9.97,0,*54
1545883499.42,629,0.0,0.0,-8.87,-9.97,-9.97,0,*5A
1545883500.63,630,0.0,0.0,-8.87,-9.97,-9.89,0,*5D
1545883503.01,632,0.0,0.0,-8.89,-9.89,-10.01,0,*66
1545883504.19,633,0.0,0.0,-8.89,-9.97,-9.97,0,*5F
1545883505.39,634,0.0,0.0,-8.87,-9.89,-9.97,0,*59
1545883506.57,635,0.0,0.0,-8.89,-9.89,-9.89,0,*59
1545883507.78,636,0.0,0.0,-8.91,-9.93,-9.97,0,*57
1545883508.96,637,0.0,0.0,-8.89,-9.97,-9.97,0,*5B
1545883510.14,638,0.0,0.0,-8.89,-9.97,-9.97,0,*54
1545883511.32,639,0.0,0.0,-8.89,-9.89,-9.97,0,*5A
1545883512.55,640,0.0,0.0,-8.91,-10.01,-10.01,0,*52
1545883513.76,641,0.0,0.0,-8.91,-10.01,-9.93,0,*60
1545883514.94,642,0.0,0.0,-8.89,-9.97,-9.89,0,*56
1545883516.13,643,0.0,0.0,-8.89,-9.97,-9.97,0,*58
1545883517.34,644,0.0,0.0,-8.91,-9.93,-10.01,0,*65
1545883518.52,645,0.0,0.0,-8.89,-9.89,-9.97,0,*51
1545883520.92,647,0.0,0.0,-8.91,-9.93,-10.01,0,*66
1545883522.14,648,0.0,0.0,-8.91,-10.01,-10.01,0,*5A
1545883523.36,649,0.0,0.0,-8.91,-10.01,-10.01,0,*5B
1545883524.58,650,0.0,0.0,-8.91,-10.01,-10.01,0,*53
1545883525.76,651,0.0,0.0,-8.89,-9.89,-9.89,0,*5B
1545883528.18,653,0.0,0.0,-8.91,-9.89,-9.93,0,*5B
1545883529.37,654,0.0,0.0,-8.89,-9.75,-9.89,0,*5D
1545883530.57,655,0.0,0.0,-8.89,-9.83,-9.89,0,*55
1545883531.77,656,0.0,0.0,-8.91,-9.89,-9.89,0,*55
1545883534.18,658,0.0,0.0,-8.91,-9.93,-9.93,0,*5B
1545883535.38,659,0.0,0.0,-8.91,-9.93,-9.89,0,*51
1545883536.6,660,0.0,0.0,-8.91,-9.93,-10.01,0,*63
1545883537.78,661,0.0,0.0,-8.89,-9.89,-9.97,0,*57
1545883538.98,662,0.0,0.0,-8.91,-9.93,-9.93,0,*52
1545883540.17,663,0.0,0.0,-8.89,-9.93,-9.93,0,*5A
1545883541.35,664,0.0,0.0,-8.89,-9.89,-9.89,0,*5D
1545883542.55,665,0.0,0.0,-8.91,-9.89,-9.93,0,*5E
1545883543.76,666,0.0,0.0,-8.89,-9.83,-9.89,0,*55
1545883544.97,667,0.0,0.0,-8.91,-9.79,-9.89,0,*58
1545883546.16,668,0.0,0.0,-8.91,-9.89,-9.89,0,*58
1545883547.36,669,0.0,0.0,-8.91,-9.89,-9.89,0,*59
1545883548.57,670,0.0,0.0,-8.91,-9.89,-9.93,0,*5A
1545883549.77,671,0.0,0.0,-8.91,-9.89,-9.89,0,*50
1545883550.97,672,0.0,0.0,-8.91,-9.89,-9.93,0,*58
1545883552.17,673,0.0,0.0,-8.91,-9.93,-9.93,0,*52
1545883553.38,674,0.0,0.0,-8.91,-9.93,-9.93,0,*55
1545883554.59,675,0.0,0.0,-8.91,-9.93,-9.93,0,*54
1545883555.77,676,0.0,0.0,-8.93,-9.93,-9.97,0,*51
1545883556.96,677,0.0,0.0,-8.93,-9.93,-9.93,0,*54
1545883558.14,678,0.0,0.0,-8.93,-9.93,-9.97,0,*5F
1545883559.33,679,0.0,0.0,-8.93,-9.93,-9.93,0,*5A
1545883560.53,680,0.0,0.0,-8.91,-9.89,-9.93,0,*55
1545883561.71,681,0.0,0.0,-8.93,-9.93,-9.97,0,*59
1545883562.9,682,0.0,0.0,-8.93,-9.93,-9.97,0,*5A
1545883564.09,683,0.0,0.0,-8.93,-9.93,-10.05,0,*68
1545883565.28,684,0.0,0.0,-8.93,-9.97,-10.09,0,*67
1545883566.46,685,0.0,0.0,-8.93,-9.97,-9.97,0,*59
1545883567.65,686,0.0,0.0,-8.93,-9.97,-9.97,0,*5A
1545883568.83,687,0.0,0.0,-8.93,-10.05,-9.97,0,*68
1545883570.02,688,0.0,0.0,-8.93,-9.97,-10.05,0,*67
1545883571.21,689,0.0,0.0,-8.93,-9.97,-9.97,0,*55
1545883572.4,690,0.0,0.0,-8.93,-9.97,-10.05,0,*6E
1545883573.61,691,0.0,0.0,-8.95,-10.05,-10.05,0,*5A
1545883574.8,692,0.0,0.0,-8.93,-10.05,-10.05,0,*5F
1545883575.99,693,0.0,0.0,-8.93,-9.97,-9.97,0,*5E
1545883577.17,694,0.0,0.0,-8.93,-9.97,-9.97,0,*59
1545883578.39,695,0.0,0.0,-8.95,-9.93,-10.05,0,*69
1545883579.57,696,0.0,0.0,-8.93,-9.93,-9.97,0,*5F
1545883580.78,697,0.0,0.0,-8.95,-9.93,-9.97,0,*58
1545883581.96,698,0.0,0.0,-8.93,-9.97,-9.97,0,*55
1545883583.15,699,0.0,0.0,-8.93,-9.97,-10.05,0,*67
1545883584.33,700,0.0,0.0,-8.93,-9.97,-9.97,0,*55
1545883585.52,701,0.0,0.0,-8.93,-9.97,-9.97,0,*54
1545883586.71,702,0.0,0.0,-8.93,-9.97,-10.05,0,*64
1545883587.9,703,0.0,0.0,-8.93,-9.97,-10.05,0,*65
1545883589.11,704,0.0,0.0,-8.95,-9.97,-10.05,0,*64
1545883590.3,705,0.0,0.0,-8.93,-9.97,-10.05,0,*63
1545883591.52,706,0.0,0.0,-8.95,-10.05,-10.05,0,*55
1545883592.73,707,0.0,0.0,-8.95,-10.05,-9.97,0,*67
1545883593.92,708,0.0,0.0,-8.93,-9.97,-10.05,0,*6E
1545883595.13,709,0.0,0.0,-8.95,-10.05,-9.97,0,*69
1545883596.33,710,0.0,0.0,-8.93,-10.05,-10.19,0,*59
1545883597.54,711,0.0,0.0,-8.95,-9.97,-10.09,0,*6C
1545883598.73,712,0.0,0.0,-8.93,-10.09,-10.09,0,*56
1545883599.95,713,0.0,0.0,-8.95,-10.09,-10.09,0,*51
1545883601.16,714,0.0,0.0,-8.95,-10.05,-10.09,0,*5A
1545883602.38,715,0.0,0.0,-8.95,-10.05,-10.19,0,*5A
1545883603.61,716,0.0,0.0,-8.95,-9.97,-10.19,0,*6A
1545883606.04,718,0.0,0.0,-8.95,-10.05,-10.09,0,*56
1545883607.25,719,0.0,0.0,-8.95,-10.05,-10.09,0,*57
1545883608.47,720,0.0,0.0,-8.95,-10.05,-10.09,0,*5D
1545883609.68,721,0.0,0.0,-8.95,-10.05,-10.09,0,*5C
1545883610.89,722,0.0,0.0,-8.97,-10.01,-10.15,0,*54
1545883612.08,723,0.0,0.0,-8.97,-10.09,-10.09,0,*50
1545883613.27,724,0.0,0.0,-8.97,-10.09,-10.09,0,*57
1545883614.47,725,0.0,0.0,-8.97,-10.09,-10.15,0,*5B
1545883615.67,726,0.0,0.0,-8.97,-10.09,-10.15,0,*58
1545883616.88,727,0.0,0.0,-8.95,-9.97,-10.09,0,*69
1545883618.09,728,0.0,0.0,-8.95,-9.97,-10.09,0,*66
1545883619.29,729,0.0,0.0,-8.97,-10.09,-10.15,0,*57
1545883620.52,730,0.0,0.0,-8.99,-10.09,-10.15,0,*51
1545883621.71,731,0.0,0.0,-8.97,-10.01,-10.23,0,*53
1545883622.91,732,0.0,0.0,-8.97,-10.09,-10.15,0,*5D
1545883624.11,733,0.0,0.0,-8.97,-10.09,-10.15,0,*5C
1545883625.33,734,0.0,0.0,-8.99,-10.09,-10.09,0,*58
1545883626.54,735,0.0,0.0,-8.99,-10.01,-10.09,0,*51
1545883627.74,736,0.0,0.0,-8.97,-10.01,-10.09,0,*5C
1545883628.94,737,0.0,0.0,-8.97,-10.01,-10.09,0,*5D
1545883630.16,738,0.0,0.0,-8.99,-10.01,-10.09,0,*5C
1545883631.38,739,0.0,0.0,-8.99,-10.01,-10.01,0,*55
1545883632.58,740,0.0,0.0,-8.97,-10.09,-10.01,0,*5D
1545883633.78,741,0.0,0.0,-8.97,-10.01,-10.09,0,*5C
1545883634.97,742,0.0,0.0,-8.97,-10.09,-10.01,0,*5F
1545883636.18,743,0.0,0.0,-8.97,-10.01,-10.01,0,*56
1545883637.39,744,0.0,0.0,-8.99,-10.01,-10.09,0,*57
1545883638.58,745,0.0,0.0,-8.97,-9.97,-10.09,0,*6F
1545883639.8,746,0.0,0.0,-8.99,-9.97,-10.09,0,*62
1545883640.99,747,0.0,0.0,-8.97,-9.97,-10.01,0,*65
1545883642.21,748,0.0,0.0,-8.99,-9.97,-10.01,0,*64
1545883643.44,749,0.0,0.0,-8.99,-10.01,-10.01,0,*52
1545883644.64,750,0.0,0.0,-8.97,-10.01,-10.01,0,*54
1545883645.83,751,0.0,0.0,-8.97,-10.01,-10.09,0,*5D
1545883648.26,753,0.0,0.0,-8.99,-9.97,-10.01,0,*6E
1545883649.46,754,0.0,0.0,-8.99,-9.89,-9.97,0,*51
1545883650.67,755,0.0,0.0,-8.99,-9.97,-9.97,0,*5F
1545883651.88,756,0.0,0.0,-8.99,-9.97,-10.09,0,*63
1545883653.08,757,0.0,0.0,-8.97,-10.01,-10.01,0,*53
1545883654.31,758,0.0,0.0,-8.99,-10.01,-10.01,0,*52
1545883655.53,759,0.0,0.0,-8.99,-10.01,-10.01,0,*53
1545883656.75,760,0.0,0.0,-8.99,-9.97,-10.01,0,*6E
1545883657.98,761,0.0,0.0,-8.99,-10.01,-10.01,0,*58
1545883659.19,762,0.0,0.0,-8.99,-10.01,-10.09,0,*53
1545883660.42,763,0.0,0.0,-8.99,-10.01,-10.01,0,*5A
1545883661.65,764,0.0,0.0,-8.99,-10.01,-10.01,0,*5D
1545883662.84,765,0.0,0.0,-8.97,-10.09,-10.09,0,*52
1545883664.05,766,0.0,0.0,-8.99,-10.09,-10.09,0,*5F
1545883665.27,767,0.0,0.0,-8.99,-10.09,-10.09,0,*5E
1545883666.48,768,0.0,0.0,-8.99,-9.97,-10.09,0,*6E
1545883667.71,769,0.0,0.0,-8.99,-10.01,-10.01,0,*50
1545883668.93,770,0.0,0.0,-8.99,-10.01,-10.01,0,*58
1545883670.16,771,0.0,0.0,-8.99,-10.09,-10.01,0,*51
1545883671.38,772,0.0,0.0,-8.99,-10.01,-10.15,0,*5F
1545883672.61,773,0.0,0.0,-8.99,-10.01,-10.01,0,*5B
1545883673.84,774,0.0,0.0,-9.03,-10.15,-10.15,0,*5E
1545883675.06,775,0.0,0.0,-8.99,-10.01,-10.09,0,*55
1545883676.29,776,0.0,0.0,-8.99,-10.01,-10.01,0,*5E
1545883677.51,777,0.0,0.0,-8.99,-10.01,-10.09,0,*57
1545883678.73,778,0.0,0.0,-8.99,-10.01,-10.01,0,*50
1545883679.96,779,0.0,0.0,-8.99,-10.01,-10.01,0,*51
1545883681.17,780,0.0,0.0,-8.99,-9.89,-10.09,0,*67
1545883682.38,781,0.0,0.0,-8.99,-9.97,-10.01,0,*61
1545883684.83,783,0.0,0.0,-8.99,-9.89,-10.01,0,*6C
1545883686.05,784,0.0,0.0,-8.99,-10.01,-10.09,0,*5B
1545883687.26,785,0.0,0.0,-8.99,-9.89,-10.09,0,*62
1545883688.48,786,0.0,0.0,-8.99,-10.01,-10.09,0,*59
1545883689.7,787,0.0,0.0,-8.99,-10.01,-10.01,0,*50
1545883690.92,788,0.0,0.0,-8.99,-9.97,-10.01,0,*68
1545883692.14,789,0.0,0.0,-9.03,-10.01,-10.05,0,*58
1545883693.36,790,0.0,0.0,-9.03,-10.05,-10.05,0,*54
1545883694.59,791,0.0,0.0,-8.99,-10.01,-10.01,0,*57
1545883697.03,793,0.0,0.0,-9.03,-10.01,-10.05,0,*53
1545883698.25,794,0.0,0.0,-9.03,-10.05,-10.05,0,*50
1545883699.47,795,0.0,0.0,-9.03,-9.93,-10.05,0,*66
1545883700.66,796,0.0,0.0,-9.05,-10.01,-10.05,0,*50
1545883705.54,800,0.0,0.0,-9.03,-10.01,-10.05,0,*56
1545883706.76,801,0.0,0.0,-8.99,-9.97,-10.09,0,*6E
1545883707.97,802,0.0,0.0,-9.03,-10.05,-10.05,0,*50
1545883709.2,803,0.0,0.0,-9.03,-10.01,-10.05,0,*55
1545883712.87,806,0.0,0.0,-9.03,-10.05,-10.15,0,*55
1545883714.1,807,0.0,0.0,-9.03,-10.15,-10.05,0,*54
1545883715.33,808,0.0,0.0,-9.03,-10.05,-10.15,0,*5B
1545883716.55,809,0.0,0.0,-9.03,-10.05,-10.15,0,*5A
1545883717.77,810,0.0,0.0,-9.03,-10.05,-10.05,0,*53
1545883718.99,811,0.0,0.0,-9.03,-10.05,-10.15,0,*53
1545883720.22,812,0.0,0.0,-9.03,-10.05,-10.15,0,*50
1545883721.44,813,0.0,0.0,-9.03,-10.05,-10.15,0,*51
1545883722.67,814,0.0,0.0,-9.03,-10.05,-10.15,0,*56
1545883723.9,815,0.0,0.0,-9.03,-10.01,-10.15,0,*53
1545883725.12,816,0.0,0.0,-9.03,-10.01,-10.05,0,*51
1545883726.32,817,0.0,0.0,-9.05,-10.01,-10.05,0,*56
1545883727.54,818,0.0,0.0,-9.03,-10.05,-10.15,0,*5A
1545883728.77,819,0.0,0.0,-9.03,-10.05,-10.15,0,*5B
1545883730.0,820,0.0,0.0,-9.03,-10.01,-10.15,0,*55
1545883732.45,822,0.0,0.0,-9.03,-10.05,-10.15,0,*53
1545883733.67,823,0.0,0.0,-9.03,-10.05,-10.05,0,*53
1545883734.88,824,0.0,0.0,-9.05,-10.15,-10.15,0,*52
1545883736.09,825,0.0,0.0,-9.05,-10.01,-10.15,0,*56
1545883737.32,826,0.0,0.0,-9.03,-10.15,-10.15,0,*56
1545883738.52,827,0.0,0.0,-9.05,-10.05,-10.15,0,*50
1545883739.72,828,0.0,0.0,-9.05,-10.05,-10.15,0,*5F
1545883740.93,829,0.0,0.0,-9.05,-10.01,-10.15,0,*5A
1545883742.13,830,0.0,0.0,-9.05,-10.05,-10.15,0,*56
1545883745.75,833,0.0,0.0,-9.05,-10.05,-10.05,0,*54
1545883746.96,834,0.0,0.0,-9.05,-10.15,-10.15,0,*53
1545883748.16,835,0.0,0.0,-9.05,-10.05,-10.15,0,*53
1545883749.36,836,0.0,0.0,-9.05,-10.05,-10.15,0,*50
1545883750.57,837,0.0,0.0,-9.05,-10.15,-10.15,0,*50
1545883751.81,838,0.0,0.0,-9.03,-10.15,-10.15,0,*59
1545883753.02,839,0.0,0.0,-9.05,-10.15,-10.15,0,*5E
1545883754.23,840,0.0,0.0,-9.05,-10.01,-10.15,0,*55
1545883755.43,841,0.0,0.0,-9.05,-10.01,-10.15,0,*54
1545883756.64,842,0.0,0.0,-9.05,-10.15,-10.05,0,*53
1545883757.83,843,0.0,0.0,-9.05,-10.05,-10.05,0,*53
1545883759.04,844,0.0,0.0,-9.05,-10.15,-10.15,0,*54
1545883760.26,845,0.0,0.0,-9.05,-10.15,-10.15,0,*55
1545883761.46,846,0.0,0.0,-9.05,-10.05,-10.15,0,*57
1545883762.65,847,0.0,0.0,-9.05,-10.05,-10.05,0,*57
1545883763.85,848,0.0,0.0,-9.05,-10.05,-10.15,0,*59
1545883765.06,849,0.0,0.0,-9.05,-10.01,-10.15,0,*5C
1545883766.27,850,0.0,0.0,-9.07,-10.09,-10.09,0,*53
1545883767.47,851,0.0,0.0,-9.05,-10.01,-10.05,0,*54
1545883768.67,852,0.0,0.0,-9.05,-10.05,-10.15,0,*52
1545883769.9,853,0.0,0.0,-9.07,-10.09,-10.19,0,*51
1545883771.1,854,0.0,0.0,-9.05,-10.01,-10.05,0,*51
1545883772.3,855,0.0,0.0,-9.05,-10.05,-10.15,0,*55
1545883773.53,856,0.0,0.0,-9.03,-10.01,-10.15,0,*54
1545883775.93,858,0.0,0.0,-9.05,-10.05,-10.15,0,*58
1545883777.13,859,0.0,0.0,-9.05,-10.05,-10.15,0,*59
1545883778.35,860,0.0,0.0,-9.07,-10.05,-10.09,0,*5C
1545883779.56,861,0.0,0.0,-9.07,-10.09,-10.09,0,*51
1545883782.0,863,0.0,0.0,-9.07,-10.09,-10.19,0,*52
1545883783.22,864,0.0,0.0,-9.07,-10.05,-10.19,0,*59
1545883784.45,865,0.0,0.0,-9.07,-10.09,-10.19,0,*54
1545883785.66,866,0.0,0.0,-9.07,-10.09,-10.09,0,*56
1545883786.88,867,0.0,0.0,-9.07,-10.09,-10.09,0,*57
1545883788.1,868,0.0,0.0,-9.07,-10.09,-10.19,0,*59
1545883789.32,869,0.0,0.0,-9.07,-10.09,-10.09,0,*59
1545883790.54,870,0.0,0.0,-9.07,-10.09,-10.19,0,*50
1545883791.76,871,0.0,0.0,-9.07,-10.09,-10.09,0,*50
1545883792.97,872,0.0,0.0,-9.07,-10.09,-10.09,0,*53
1545883794.19,873,0.0,0.0,-9.07,-10.05,-10.19,0,*5F
1545883795.41,874,0.0,0.0,-9.07,-10.05,-10.09,0,*59
1545883796.63,875,0.0,0.0,-9.07,-10.05,-10.05,0,*54
1545883797.85,876,0.0,0.0,-9.07,-10.09,-10.19,0,*56
1545883799.07,877,0.0,0.0,-9.07,-10.09,-10.19,0,*57
1545883800.29,878,0.0,0.0,-9.07,-10.05,-10.09,0,*55
1545883801.5,879,0.0,0.0,-9.07,-9.97,-10.09,0,*67
1545883802.72,880,0.0,0.0,-9.07,-10.05,-10.19,0,*53
1545883803.94,881,0.0,0.0,-9.07,-10.05,-10.09,0,*53
1545883805.16,882,0.0,0.0,-9.07,-10.05,-10.19,0,*51
1545883806.37,883,0.0,0.0,-9.09,-10.05,-10.19,0,*5E
1545883807.58,884,0.0,0.0,-9.07,-10.05,-10.09,0,*56
1545883808.8,885,0.0,0.0,-9.07,-10.05,-10.09,0,*57
1545883809.99,886,0.0,0.0,-9.09,-9.97,-10.05,0,*65
1545883811.21,887,0.0,0.0,-9.07,-10.05,-10.05,0,*59
1545883812.42,888,0.0,0.0,-9.07,-10.05,-10.09,0,*5A
1545883813.62,889,0.0,0.0,-9.09,-10.05,-10.09,0,*55
1545883814.84,890,0.0,0.0,-9.07,-10.05,-10.09,0,*53
1545883816.03,891,0.0,0.0,-9.05,-10.05,-10.05,0,*5C
1545883818.44,893,0.0,0.0,-9.07,-10.09,-10.09,0,*5C
1545883819.65,894,0.0,0.0,-9.09,-10.09,-10.19,0,*54
1545883820.87,895,0.0,0.0,-9.07,-10.09,-10.19,0,*5B
1545883822.09,896,0.0,0.0,-9.07,-10.09,-10.09,0,*59
1545883823.3,897,0.0,0.0,-9.09,-10.09,-10.19,0,*57
1545883824.52,898,0.0,0.0,-9.07,-10.05,-10.19,0,*5A
1545883825.73,899,0.0,0.0,-9.07,-10.05,-10.09,0,*5A
1545883826.94,900,0.0,0.0,-9.09,-10.05,-10.19,0,*54
1545883828.15,901,0.0,0.0,-9.07,-9.97,-10.09,0,*69
1545883831.74,904,0.0,0.0,-9.09,-9.97,-9.97,0,*5D
1545883832.96,905,0.0,0.0,-9.07,-10.05,-10.05,0,*52
1545883834.16,906,0.0,0.0,-9.07,-9.97,-9.97,0,*51
1545883835.37,907,0.0,0.0,-9.07,-9.97,-9.97,0,*50